EW0610 Weather Reports


Display with metric or nautical units.
time (UTC)temp
F
wind
direction
speed
MPH
gust
MPH
rain 1hr
in
rain 24hr
in
rain mn
in
humidity
%
barometer
mb
20260902031429 91 129 3.0 5.0 0.00 0.00 0.00 47 1013.9
20260902030933 92 124 2.0 5.0 0.00 0.00 0.00 47 1013.8
20260902030442 92 127 3.0 5.0 0.00 0.00 0.00 47 1013.7
20260902025935 92 125 3.0 6.0 0.00 0.00 0.00 47 1013.7
20260902025509 92 124 4.0 7.0 0.00 0.00 0.00 47 1013.5
20260902024932 92 124 5.0 7.0 0.00 0.00 0.00 47 1013.5
20260902024435 92 120 3.0 5.0 0.00 0.00 0.00 47 1013.5
20260902024006 92 118 3.0 7.0 0.00 0.00 0.00 47 1013.4
20260902023428 92 119 3.0 7.0 0.00 0.00 0.00 46 1013.4
20260902022953 92 118 4.0 6.0 0.00 0.00 0.00 46 1013.3
20260902022438 92 126 4.0 6.0 0.00 0.00 0.00 46 1013.2
20260902021946 92 119 3.0 6.0 0.00 0.00 0.00 46 1013.1
20260902021435 92 120 4.0 6.0 0.00 0.00 0.00 46 1013.1
20260902020941 92 118 3.0 5.0 0.00 0.00 0.00 46 1013.0
20260902020443 93 118 3.0 6.0 0.00 0.00 0.00 45 1012.9
20260902015930 93 120 3.0 9.0 0.00 0.00 0.00 44 1013.0
20260902015505 93 117 5.0 9.0 0.00 0.00 0.00 44 1012.9
20260902014940 93 108 4.0 7.0 0.00 0.00 0.00 44 1012.8
20260902014426 93 112 4.0 5.0 0.00 0.00 0.00 44 1012.8
20260902013933 93 116 3.0 6.0 0.00 0.00 0.00 44 1012.7
20260902013443 94 119 4.0 7.0 0.00 0.00 0.00 43 1012.6
20260902012949 94 122 4.0 7.0 0.00 0.00 0.00 43 1012.6
20260902012456 94 120 3.0 6.0 0.00 0.00 0.00 43 1012.5
20260902011935 94 118 4.0 8.0 0.00 0.00 0.00 43 1012.6
20260902011447 94 110 4.0 8.0 0.00 0.00 0.00 43 1012.5
20260902010929 94 98 4.0 7.0 0.00 0.00 0.00 43 1012.4
20260902010437 94 114 3.0 6.0 0.00 0.00 0.00 42 1012.4
20260902010009 95 110 3.0 7.0 0.00 0.00 0.00 42 1012.4
20260902005454 95 114 4.0 7.0 0.00 0.00 0.00 42 1012.4
20260902004933 95 111 3.0 9.0 0.00 0.00 0.00 42 1012.4
20260902004440 95 106 4.0 9.0 0.00 0.00 0.00 41 1012.4
20260902003951 96 106 4.0 10.0 0.00 0.00 0.00 40 1012.5
20260902003436 96 114 4.0 11.0 0.00 0.00 0.00 40 1012.5
20260902002940 96 131 6.0 11.0 0.00 0.00 0.00 40 1012.5
20260902002431 96 106 4.0 12.0 0.00 0.00 0.00 39 1012.6
20260902001954 96 120 8.0 12.0 0.00 0.00 0.00 39 1012.5
20260902001437 97 97 9.0 12.0 0.00 0.00 0.00 39 1012.6
20260902000941 97 118 5.0 12.0 0.00 0.00 0.00 39 1012.7
20260902000425 97 86 9.0 12.0 0.00 0.00 0.00 39 1012.7
20260901235934 97 113 7.0 15.0 0.00 0.00 0.00 38 1012.7
20260901235505 98 89 9.0 15.0 0.00 0.00 0.00 38 1012.7
20260901234935 98 97 10.0 15.0 0.00 0.00 0.00 38 1012.7
20260901234455 98 102 6.0 7.0 0.00 0.00 0.00 38 1012.6
20260901233941 99 109 5.0 11.0 0.00 0.00 0.00 36 1012.7
20260901233429 99 124 6.0 11.0 0.00 0.00 0.00 36 1012.7
20260901232959 99 102 5.0 10.0 0.00 0.00 0.00 36 1012.7
20260901232427 99 122 2.0 10.0 0.00 0.00 0.00 36 1012.8
20260901231959 99 95 6.0 13.0 0.00 0.00 0.00 36 1012.8
20260901231444 99 101 7.0 13.0 0.00 0.00 0.00 37 1012.8
20260901230927 99 104 8.0 11.0 0.00 0.00 0.00 36 1012.7
20260901230437 99 158 5.0 10.0 0.00 0.00 0.00 36 1012.8
20260901225945 99 111 5.0 12.0 0.00 0.00 0.00 36 1012.7
20260901225450 100 102 7.0 12.0 0.00 0.00 0.00 35 1012.8
20260901224955 100 84 8.0 12.0 0.00 0.00 0.00 35 1012.8
20260901224442 100 120 3.0 7.0 0.00 0.00 0.00 34 1012.8
20260901223929 100 129 3.0 13.0 0.00 0.00 0.00 34 1012.8
20260901223447 100 95 5.0 13.0 0.00 0.00 0.00 35 1012.8
20260901222935 100 68 8.0 11.0 0.00 0.00 0.00 34 1012.8
20260901222439 100 107 3.0 15.0 0.00 0.00 0.00 35 1012.9
20260901221926 100 122 6.0 15.0 0.00 0.00 0.00 35 1012.9
20260901221437 100 108 2.0 15.0 0.00 0.00 0.00 34 1012.9
20260901220946 99 128 3.0 15.0 0.00 0.00 0.00 36 1013.0
20260901220432 100 105 8.0 13.0 0.00 0.00 0.00 36 1012.9
20260901215932 100 118 7.0 11.0 0.00 0.00 0.00 34 1013.0
20260901215505 101 109 5.0 11.0 0.00 0.00 0.00 35 1013.0
20260901214951 101 112 5.0 11.0 0.00 0.00 0.00 35 1013.1
20260901214432 100 122 4.0 11.0 0.00 0.00 0.00 35 1013.1
20260901213941 100 148 4.0 11.0 0.00 0.00 0.00 35 1013.2
20260901213446 99 114 7.0 14.0 0.00 0.00 0.00 34 1013.2
20260901212930 100 110 11.0 14.0 0.00 0.00 0.00 34 1013.2
20260901212452 100 117 4.0 12.0 0.00 0.00 0.00 35 1013.3
20260901211935 99 112 6.0 12.0 0.00 0.00 0.00 35 1013.3
20260901211439 99 119 8.0 11.0 0.00 0.00 0.00 36 1013.4
20260901210945 99 123 1.0 6.0 0.00 0.00 0.00 37 1013.4
20260901210428 98 123 1.0 10.0 0.00 0.00 0.00 37 1013.5
20260901205932 97 129 5.0 11.0 0.00 0.00 0.00 38 1013.6
20260901205451 97 104 7.0 14.0 0.00 0.00 0.00 38 1013.6
20260901204956 98 98 7.0 14.0 0.00 0.00 0.00 36 1013.6
20260901204448 99 97 7.0 13.0 0.00 0.00 0.00 37 1013.6
20260901203954 100 91 7.0 13.0 0.00 0.00 0.00 36 1013.7
20260901203446 100 171 3.0 7.0 0.00 0.00 0.00 36 1013.8
20260901202932 100 233 4.0 7.0 0.00 0.00 0.00 36 1013.8
20260901202434 100 137 5.0 11.0 0.00 0.00 0.00 37 1013.8
20260901202005 100 148 6.0 11.0 0.00 0.00 0.00 36 1014.0
20260901201430 99 144 1.0 11.0 0.00 0.00 0.00 36 1013.9
20260901200935 100 125 3.0 11.0 0.00 0.00 0.00 36 1014.1
20260901200442 100 158 2.0 7.0 0.00 0.00 0.00 37 1014.1
20260901195930 99 153 5.0 10.0 0.00 0.00 0.00 39 1014.2
20260901195436 99 126 5.0 10.0 0.00 0.00 0.00 39 1014.3
20260901194945 99 114 5.0 10.0 0.00 0.00 0.00 39 1014.2
20260901194430 99 89 6.0 10.0 0.00 0.00 0.00 39 1014.3
20260901193940 99 102 1.0 10.0 0.00 0.00 0.00 38 1014.4
20260901193427 99 107 6.0 15.0 0.00 0.00 0.00 39 1014.4
20260901192937 98 116 6.0 15.0 0.00 0.00 0.00 39 1014.5
20260901192443 98 95 11.0 15.0 0.00 0.00 0.00 39 1014.5
20260901191931 99 90 7.0 12.0 0.00 0.00 0.00 38 1014.6
20260901191434 98 111 6.0 16.0 0.00 0.00 0.00 40 1014.7
20260901190940 97 114 7.0 16.0 0.00 0.00 0.00 42 1014.8
20260901190440 97 97 9.0 13.0 0.00 0.00 0.00 40 1014.8
20260901185947 98 210 4.0 9.0 0.00 0.00 0.00 41 1014.8
20260901185432 98 195 4.0 9.0 0.00 0.00 0.00 40 1015.1
20260901184934 97 137 2.0 12.0 0.00 0.00 0.00 42 1015.1
20260901184437 97 120 3.0 14.0 0.00 0.00 0.00 42 1015.2
20260901183929 97 105 5.0 14.0 0.00 0.00 0.00 41 1015.4
20260901183432 98 111 8.0 12.0 0.00 0.00 0.00 41 1015.4
20260901182937 97 58 3.0 12.0 0.00 0.00 0.00 41 1015.5
20260901182427 97 108 8.0 12.0 0.00 0.00 0.00 42 1015.6
20260901181940 96 108 4.0 13.0 0.00 0.00 0.00 42 1015.7
20260901181432 98 117 8.0 13.0 0.00 0.00 0.00 41 1015.7
20260901180936 98 110 5.0 14.0 0.00 0.00 0.00 42 1015.8
20260901180429 97 106 5.0 14.0 0.00 0.00 0.00 41 1015.8
20260901175958 97 112 4.0 9.0 0.00 0.00 0.00 42 1015.9
20260901175457 97 95 5.0 10.0 0.00 0.00 0.00 41 1016.0
20260901174946 97 135 5.0 11.0 0.00 0.00 0.00 41 1016.1
20260901174432 97 62 4.0 11.0 0.00 0.00 0.00 42 1016.0
20260901173938 96 96 4.0 10.0 0.00 0.00 0.00 43 1016.1
20260901173428 96 103 4.0 9.0 0.00 0.00 0.00 44 1016.3
20260901172932 96 126 2.0 6.0 0.00 0.00 0.00 44 1016.2
20260901172457 96 127 4.0 9.0 0.00 0.00 0.00 43 1016.4
20260901171937 96 134 4.0 9.0 0.00 0.00 0.00 43 1016.5
20260901171439 96 115 4.0 10.0 0.00 0.00 0.00 44 1016.5
20260901170925 96 113 4.0 10.0 0.00 0.00 0.00 44 1016.6
20260901170435 96 89 2.0 11.0 0.00 0.00 0.00 44 1016.7
20260901165926 95 116 6.0 9.0 0.00 0.00 0.00 45 1016.7
20260901165435 95 131 2.0 7.0 0.00 0.00 0.00 45 1016.8
20260901164939 95 148 2.0 8.0 0.00 0.00 0.00 46 1016.8
20260901164426 95 197 3.0 8.0 0.00 0.00 0.00 45 1016.9
20260901163927 95 131 3.0 6.0 0.00 0.00 0.00 46 1016.9
20260901163437 94 179 4.0 8.0 0.00 0.00 0.00 46 1016.9
20260901162937 94 148 5.0 8.0 0.00 0.00 0.00 46 1016.9
20260901162440 95 196 2.0 10.0 0.00 0.00 0.00 46 1016.9
20260901161942 94 199 5.0 10.0 0.00 0.00 0.00 47 1016.9
20260901161448 93 207 3.0 9.0 0.00 0.00 0.00 48 1016.9
20260901160932 93 216 4.0 9.0 0.00 0.00 0.00 48 1017.0
20260901160431 94 231 2.0 5.0 0.00 0.00 0.00 48 1017.0
20260901155933 92 109 2.0 6.0 0.00 0.00 0.00 51 1016.9
20260901155508 92 106 3.0 7.0 0.00 0.00 0.00 50 1016.9
20260901154951 92 264 2.0 10.0 0.00 0.00 0.00 51 1016.9
20260901154432 91 197 6.0 10.0 0.00 0.00 0.00 51 1017.0
20260901153940 91 210 3.0 7.0 0.00 0.00 0.00 53 1016.9
20260901153442 91 210 2.0 8.0 0.00 0.00 0.00 53 1016.8
20260901152929 91 247 1.0 8.0 0.00 0.00 0.00 53 1016.8
20260901152436 91 223 3.0 10.0 0.00 0.00 0.00 52 1016.8
20260901151938 90 233 3.0 10.0 0.00 0.00 0.00 54 1016.8
20260901151428 89 187 1.0 7.0 0.00 0.00 0.00 55 1016.8
20260901150935 89 228 4.0 7.0 0.00 0.00 0.00 55 1016.9
20260901150505 89 170 2.0 5.0 0.00 0.00 0.00 57 1017.0
20260901145946 88 158 2.0 5.0 0.00 0.00 0.00 58 1016.9
20260901145435 88 153 3.0 7.0 0.00 0.00 0.00 58 1016.9
20260901145006 87 194 4.0 7.0 0.00 0.00 0.00 58 1017.0
20260901144430 87 153 3.0 6.0 0.00 0.00 0.00 59 1017.0
20260901143933 87 198 2.0 5.0 0.00 0.00 0.00 59 1017.0
20260901143441 87 200 2.0 5.0 0.00 0.00 0.00 60 1017.0
20260901143000 86 153 3.0 6.0 0.00 0.00 0.00 60 1017.0
20260901142446 86 197 3.0 6.0 0.00 0.00 0.00 60 1017.0
20260901141931 86 172 2.0 6.0 0.00 0.00 0.00 61 1017.0
20260901141438 86 131 3.0 6.0 0.00 0.00 0.00 61 1017.1
20260901140942 85 118 3.0 7.0 0.00 0.00 0.00 62 1017.1
20260901140429 85 176 4.0 7.0 0.00 0.00 0.00 62 1017.1
20260901135956 85 125 4.0 9.0 0.00 0.00 0.00 63 1017.2
20260901135439 84 117 4.0 9.0 0.00 0.00 0.00 63 1017.1
20260901134943 84 120 5.0 6.0 0.00 0.00 0.00 63 1017.0
20260901134427 83 118 3.0 7.0 0.00 0.00 0.00 64 1017.0
20260901134003 83 120 5.0 7.0 0.00 0.00 0.00 65 1017.0
20260901133427 83 126 2.0 6.0 0.00 0.00 0.00 65 1016.9
20260901132931 83 122 3.0 6.0 0.00 0.00 0.00 65 1016.9
20260901132433 82 120 4.0 5.0 0.00 0.00 0.00 66 1016.8
20260901131941 82 119 2.0 4.0 0.00 0.00 0.00 66 1016.8
20260901131445 82 120 3.0 6.0 0.00 0.00 0.00 66 1016.9
20260901130955 82 120 4.0 6.0 0.00 0.00 0.00 67 1016.9
20260901130442 82 153 3.0 5.0 0.00 0.00 0.00 67 1016.8
20260901125926 81 166 2.0 4.0 0.00 0.00 0.00 67 1016.7
20260901125456 81 168 2.0 4.0 0.00 0.00 0.00 67 1016.5
20260901124934 81 170 2.0 4.0 0.00 0.00 0.00 68 1016.5
20260901124443 81 174 3.0 4.0 0.00 0.00 0.00 67 1016.5
20260901123932 81 175 2.0 5.0 0.00 0.00 0.00 67 1016.5
20260901123438 81 177 2.0 5.0 0.00 0.00 0.00 67 1016.5
20260901122928 81 195 2.0 5.0 0.00 0.00 0.00 67 1016.3
20260901122430 81 208 2.0 4.0 0.00 0.00 0.00 66 1016.3
20260901121957 82 211 1.0 4.0 0.00 0.00 0.00 66 1016.3
20260901121454 82 211 2.0 4.0 0.00 0.00 0.00 66 1016.3
20260901120935 81 212 2.0 4.0 0.00 0.00 0.00 67 1016.3
20260901120445 81 214 1.0 2.0 0.00 0.00 0.00 67 1016.0
20260901115932 81 214 1.0 2.0 0.00 0.00 0.00 67 1016.0
20260901115442 81 214 1.0 2.0 0.00 0.00 0.00 67 1016.0
20260901114931 81 214 2.0 2.0 0.00 0.00 0.00 67 1016.0
20260901114438 81 214 1.0 3.0 0.00 0.00 0.00 66 1016.0
20260901113940 81 214 1.0 3.0 0.00 0.00 0.00 67 1015.9
20260901113432 81 214 0.0 2.0 0.00 0.00 0.00 66 1015.8
20260901112943 81 214 1.0 2.0 0.00 0.00 0.00 66 1015.8
20260901112452 81 214 0.0 2.0 0.00 0.00 0.00 66 1015.9
20260901111939 81 214 0.0 2.0 0.00 0.00 0.00 66 1015.8
20260901111429 81 214 0.0 1.0 0.00 0.00 0.00 66 1015.7
20260901110935 81 214 0.0 1.0 0.00 0.00 0.00 66 1015.7
20260901110435 81 214 0.0 2.0 0.00 0.00 0.00 64 1015.7
20260901105942 82 214 0.0 3.0 0.00 0.00 0.00 64 1015.7
20260901105427 82 214 2.0 3.0 0.00 0.00 0.00 64 1015.6
20260901104934 82 213 1.0 4.0 0.00 0.00 0.00 64 1015.6
20260901104440 82 213 1.0 4.0 0.00 0.00 0.00 63 1015.6
20260901103927 82 213 3.0 4.0 0.00 0.00 0.00 63 1015.6
20260901103439 82 212 1.0 3.0 0.00 0.00 0.00 63 1015.5
20260901102928 82 212 2.0 5.0 0.00 0.00 0.00 63 1015.6
20260901102427 83 212 2.0 5.0 0.00 0.00 0.00 62 1015.6
20260901101937 83 210 2.0 5.0 0.00 0.00 0.00 62 1015.6
20260901101443 83 207 3.0 5.0 0.00 0.00 0.00 62 1015.6
20260901100932 83 206 3.0 5.0 0.00 0.00 0.00 62 1015.5
20260901100438 83 207 2.0 6.0 0.00 0.00 0.00 61 1015.5
20260901095948 83 206 2.0 6.0 0.00 0.00 0.00 61 1015.6
20260901095434 83 201 3.0 5.0 0.00 0.00 0.00 61 1015.6
20260901094934 83 199 3.0 6.0 0.00 0.00 0.00 60 1015.6
20260901094436 84 196 4.0 6.0 0.00 0.00 0.00 60 1015.5
20260901093948 84 181 3.0 7.0 0.00 0.00 0.00 60 1015.6
20260901093432 84 204 4.0 7.0 0.00 0.00 0.00 60 1015.7
20260901092939 84 202 4.0 7.0 0.00 0.00 0.00 59 1015.7
20260901092426 84 204 5.0 7.0 0.00 0.00 0.00 59 1015.8
20260901091934 84 197 3.0 7.0 0.00 0.00 0.00 59 1015.9
20260901091443 84 201 4.0 9.0 0.00 0.00 0.00 58 1015.9
20260901090930 84 197 4.0 9.0 0.00 0.00 0.00 58 1015.9
20260901090449 84 216 5.0 10.0 0.00 0.00 0.00 58 1015.8
20260901085952 85 191 4.0 10.0 0.00 0.00 0.00 57 1015.7
20260901085438 85 183 5.0 9.0 0.00 0.00 0.00 57 1015.7
20260901084946 85 191 4.0 11.0 0.00 0.00 0.00 57 1015.6
20260901084437 85 187 7.0 11.0 0.00 0.00 0.00 56 1015.7
20260901083942 85 192 4.0 10.0 0.00 0.00 0.00 56 1015.6
20260901083427 85 175 5.0 10.0 0.00 0.00 0.00 56 1015.5
20260901082947 85 199 6.0 10.0 0.00 0.00 0.00 55 1015.6
20260901082453 85 187 4.0 10.0 0.00 0.00 0.00 55 1015.6
20260901081937 85 178 5.0 10.0 0.00 0.00 0.00 54 1015.7
20260901081430 86 202 6.0 10.0 0.00 0.00 0.00 54 1015.5
20260901080956 86 148 6.0 11.0 0.00 0.00 0.00 53 1015.4
20260901080445 86 132 5.0 11.0 0.00 0.00 0.00 53 1015.4
20260901075927 85 181 6.0 10.0 0.00 0.00 0.00 52 1015.4
20260901075436 86 135 6.0 10.0 0.00 0.00 0.00 51 1015.4
20260901074939 86 129 5.0 10.0 0.00 0.00 0.00 51 1015.4
20260901074446 86 135 4.0 7.0 0.00 0.00 0.00 51 1015.4
20260901073930 86 123 5.0 7.0 0.00 0.00 0.00 50 1015.4
20260901073423 86 127 4.0 8.0 0.00 0.00 0.00 50 1015.4
20260901072929 86 126 4.0 9.0 0.00 0.00 0.00 49 1015.4
20260901072506 86 127 5.0 9.0 0.00 0.00 0.00 49 1015.4
20260901071931 86 119 5.0 9.0 0.00 0.00 0.00 48 1015.3
20260901071442 86 126 5.0 9.0 0.00 0.00 0.00 48 1015.3
20260901070931 86 137 5.0 9.0 0.00 0.00 0.00 48 1015.3
20260901070437 86 118 3.0 5.0 0.00 0.00 0.00 48 1015.3
20260901065940 86 118 3.0 5.0 0.00 0.00 0.00 47 1015.3
20260901065440 86 118 2.0 5.0 0.00 0.00 0.00 47 1015.2
20260901064948 86 119 3.0 7.0 0.00 0.00 0.00 47 1015.2
20260901064428 86 122 4.0 7.0 0.00 0.00 0.00 46 1015.2
20260901063935 87 116 3.0 5.0 0.00 0.00 0.00 46 1015.2
20260901063507 87 119 4.0 8.0 0.00 0.00 0.00 45 1015.2
20260901062949 87 120 4.0 8.0 0.00 0.00 0.00 44 1015.1
20260901062437 87 125 2.0 7.0 0.00 0.00 0.00 44 1015.1
20260901061941 87 120 5.0 7.0 0.00 0.00 0.00 44 1015.0
20260901061431 88 125 3.0 7.0 0.00 0.00 0.00 43 1015.0
20260901060942 88 122 2.0 6.0 0.00 0.00 0.00 43 1014.9
20260901060456 88 125 3.0 6.0 0.00 0.00 0.00 43 1014.9
20260901055945 88 125 4.0 6.0 0.00 0.00 0.00 43 1014.8
20260901055449 88 126 4.0 6.0 0.00 0.00 0.00 42 1014.8
20260901054958 89 126 4.0 7.0 0.00 0.00 0.00 42 1014.8
20260901054427 89 120 5.0 7.0 0.00 0.00 0.00 41 1014.6
20260901053935 89 133 4.0 7.0 0.00 0.00 0.00 41 1014.6
20260901053436 89 148 4.0 6.0 0.00 0.00 0.00 41 1014.6
20260901052945 89 158 4.0 6.0 0.00 0.00 0.00 41 1014.5
20260901052427 89 148 4.0 6.0 0.00 0.00 0.00 41 1014.5
20260901051956 89 148 3.0 5.0 0.00 0.00 0.00 41 1014.4
20260901051436 89 131 3.0 6.0 0.00 0.00 0.00 41 1014.4
20260901050948 89 129 4.0 6.0 0.00 0.00 0.00 41 1014.3
20260901050432 89 162 4.0 7.0 0.00 0.00 0.00 40 1014.4
20260901045942 89 124 4.0 9.0 0.00 0.00 0.00 40 1014.4
20260901045448 89 129 5.0 9.0 0.00 0.00 0.00 40 1014.3
20260901044936 89 132 4.0 7.0 0.00 0.00 0.00 40 1014.4
20260901044442 89 126 3.0 7.0 0.00 0.00 0.00 40 1014.3
20260901043928 89 122 5.0 6.0 0.00 0.00 0.00 40 1014.3
20260901043438 89 125 3.0 6.0 0.00 0.00 0.00 40 1014.2
20260901042925 89 124 3.0 7.0 0.00 0.00 0.00 40 1014.3
20260901042433 90 124 4.0 7.0 0.00 0.00 0.00 40 1014.3
20260901041942 90 126 4.0 7.0 0.00 0.00 0.00 39 1014.2
20260901041432 90 131 4.0 6.0 0.00 0.00 0.00 39 1014.3
20260901040940 90 133 3.0 6.0 0.00 0.00 0.00 39 1014.4
20260901040431 90 128 4.0 6.0 0.00 0.00 0.00 39 1014.3
20260901035937 90 124 4.0 6.0 0.00 0.00 0.00 38 1014.3
20260901035442 90 126 4.0 6.0 0.00 0.00 0.00 38 1014.4
20260901034927 90 136 4.0 6.0 0.00 0.00 0.00 38 1014.4
20260901034435 90 134 3.0 6.0 0.00 0.00 0.00 38 1014.3
20260901033927 90 133 4.0 6.0 0.00 0.00 0.00 38 1014.3
20260901033501 91 135 4.0 6.0 0.00 0.00 0.00 38 1014.3
20260901033012 91 120 4.0 6.0 0.00 0.00 0.00 38 1014.3
20260901032437 91 121 3.0 6.0 0.00 0.00 0.00 38 1014.3
20260901031943 91 120 3.0 6.0 0.00 0.00 0.00 38 1014.2